When you browse on this site, cookies collect data to enhance your experience and personalize the content and advertising you see.
Visit our Privacy Policy to learn more. By continuing to use the site, you agree to this use of cookies and data.
  • In Sweden
  • List of Countries
  • For 7 days
  • Water Temperature
  • Satellite Maps
  • Weather Map
  • Weather Widgets
  • user-avatar
    Login

    Hourly Weather Abha

    Today, 21 July, Sunday

    Time Temperature Precipitation Wind Pressure Humidity
    00:00 +29°C° 0 mm 2 mps 640 mmHg 36%
    01:00 +28°C° 0 mm 2 mps 640 mmHg 35%
    02:00 +28°C° 0 mm 2 mps 640 mmHg 33%
    03:00 +28°C° 0 mm 2 mps 639 mmHg 31%
    04:00 +27°C° 0 mm 2 mps 639 mmHg 30%
    05:00 +27°C° 0 mm 3 mps 639 mmHg 29%
    06:00 +27°C° 0 mm 3 mps 639 mmHg 28%
    07:00 +29°C° 0 mm 3 mps 640 mmHg 25%
    08:00 +31°C° 0 mm 2 mps 641 mmHg 22%
    09:00 +34°C° 0 mm 2 mps 642 mmHg 19%
    10:00 +35°C° 0 mm 3 mps 642 mmHg 20%
    11:00 +36°C° 0 mm 3 mps 642 mmHg 20%
    12:00 +37°C° 0 mm 4 mps 642 mmHg 20%
    13:00 +37°C° 0 mm 4 mps 642 mmHg 22%
    14:00 +37°C° 0 mm 4 mps 641 mmHg 23%
    15:00 +37°C° 0 mm 5 mps 641 mmHg 25%
    16:00 +36°C° 0 mm 4 mps 641 mmHg 29%
    17:00 +34°C° 0 mm 4 mps 640 mmHg 32%
    18:00 +33°C° 0 mm 3 mps 640 mmHg 36%
    19:00 +31°C° 0 mm 3 mps 640 mmHg 38%
    20:00 +31°C° 0 mm 2 mps 641 mmHg 39%
    21:00 +30°C° 0 mm 2 mps 641 mmHg 40%
    22:00 +30°C° 0 mm 1 mps 641 mmHg 40%
    23:00 +29°C° 0 mm 1 mps 640 mmHg 40%

    Tomorrow, 22 July, Monday

    Time Temperature Precipitation Wind Pressure Humidity
    00:00 +29°C° 0 mm 1 mps 640 mmHg 39%
    01:00 +28°C° 0 mm 1 mps 640 mmHg 40%
    02:00 +28°C° 0 mm 1 mps 639 mmHg 40%
    03:00 +27°C° 0 mm 1 mps 639 mmHg 41%
    04:00 +27°C° 0 mm 1 mps 639 mmHg 45%
    05:00 +26°C° 0 mm 1 mps 639 mmHg 49%
    06:00 +26°C° 0 mm 1 mps 639 mmHg 53%
    07:00 +27°C° 0 mm 1 mps 640 mmHg 48%
    08:00 +29°C° 0 mm 2 mps 640 mmHg 44%
    09:00 +30°C° 0 mm 2 mps 641 mmHg 40%
    10:00 +31°C° 0.1 mm 3 mps 641 mmHg 39%
    11:00 +33°C° 0.1 mm 4 mps 642 mmHg 38%
    12:00 +34°C° 0.1 mm 4 mps 642 mmHg 38%
    13:00 +34°C° 0.4 mm 4 mps 641 mmHg 40%
    14:00 +33°C° 0.4 mm 4 mps 641 mmHg 43%
    15:00 +33°C° 0.4 mm 4 mps 640 mmHg 45%
    16:00 +32°C° 0.5 mm 4 mps 640 mmHg 48%
    17:00 +31°C° 0.5 mm 3 mps 639 mmHg 51%
    18:00 +30°C° 0.5 mm 3 mps 639 mmHg 54%
    19:00 +29°C° 0.2 mm 3 mps 639 mmHg 56%
    20:00 +29°C° 0.2 mm 2 mps 640 mmHg 58%
    21:00 +28°C° 0.2 mm 1 mps 640 mmHg 60%
    22:00 +28°C° 0 mm 1 mps 640 mmHg 60%
    23:00 +28°C° 0 mm 1 mps 640 mmHg 60%

    Day after tomorrow, 23 July, Tuesday

    Time Temperature Precipitation Wind Pressure Humidity
    00:00 +28°C° 0 mm 1 mps 639 mmHg 60%
    01:00 +28°C° 0 mm 1 mps 639 mmHg 60%
    02:00 +27°C° 0 mm 1 mps 639 mmHg 59%
    03:00 +27°C° 0 mm 1 mps 638 mmHg 58%
    04:00 +27°C° 0 mm 1 mps 639 mmHg 58%
    05:00 +27°C° 0 mm 1 mps 639 mmHg 57%
    06:00 +26°C° 0 mm 1 mps 639 mmHg 57%
    07:00 +28°C° 0 mm 2 mps 640 mmHg 51%
    08:00 +29°C° 0 mm 2 mps 640 mmHg 46%
    09:00 +30°C° 0 mm 3 mps 641 mmHg 40%
    10:00 +31°C° 0.2 mm 3 mps 641 mmHg 38%
    11:00 +33°C° 0.2 mm 3 mps 641 mmHg 36%
    12:00 +34°C° 0.2 mm 4 mps 641 mmHg 34%
    13:00 +34°C° 0.1 mm 4 mps 641 mmHg 34%
    14:00 +34°C° 0.1 mm 5 mps 640 mmHg 33%
    15:00 +34°C° 0.1 mm 6 mps 640 mmHg 33%
    16:00 +33°C° 0 mm 6 mps 640 mmHg 35%
    17:00 +32°C° 0 mm 5 mps 640 mmHg 37%
    18:00 +30°C° 0 mm 5 mps 639 mmHg 39%
    19:00 +30°C° 0 mm 4 mps 640 mmHg 40%
    20:00 +29°C° 0 mm 3 mps 640 mmHg 42%
    21:00 +29°C° 0 mm 3 mps 640 mmHg 44%
    22:00 +28°C° 0 mm 2 mps 640 mmHg 43%
    23:00 +28°C° 0 mm 2 mps 640 mmHg 43%

    24 July, Wednesday

    Time Temperature Precipitation Wind Pressure Humidity
    00:00 +28°C° 0 mm 2 mps 639 mmHg 43%
    01:00 +27°C° 0 mm 2 mps 639 mmHg 40%
    02:00 +27°C° 0 mm 2 mps 639 mmHg 36%
    03:00 +26°C° 0 mm 2 mps 638 mmHg 32%
    04:00 +26°C° 0 mm 2 mps 638 mmHg 32%
    05:00 +26°C° 0 mm 2 mps 638 mmHg 32%
    06:00 +26°C° 0 mm 1 mps 638 mmHg 31%
    07:00 +27°C° 0 mm 2 mps 639 mmHg 28%
    08:00 +29°C° 0 mm 2 mps 640 mmHg 25%
    09:00 +31°C° 0 mm 3 mps 641 mmHg 22%
    10:00 +33°C° 0 mm 3 mps 641 mmHg 21%
    11:00 +34°C° 0 mm 3 mps 641 mmHg 20%
    12:00 +35°C° 0 mm 3 mps 641 mmHg 19%
    13:00 +35°C° 0 mm 4 mps 641 mmHg 21%
    14:00 +35°C° 0 mm 4 mps 640 mmHg 22%
    15:00 +35°C° 0 mm 5 mps 640 mmHg 24%
    16:00 +34°C° 0 mm 4 mps 639 mmHg 27%
    17:00 +33°C° 0 mm 4 mps 639 mmHg 30%
    18:00 +31°C° 0 mm 3 mps 639 mmHg 33%
    19:00 +31°C° 0 mm 2 mps 639 mmHg 35%
    20:00 +30°C° 0 mm 1 mps 639 mmHg 37%
    21:00 +29°C° 0 mm 1 mps 639 mmHg 40%
    22:00 +29°C° 0 mm 1 mps 639 mmHg 40%
    23:00 +29°C° 0 mm 1 mps 638 mmHg 40%

    25 July, Thursday

    Time Temperature Precipitation Wind Pressure Humidity
    00:00 +28°C° 0 mm 1 mps 638 mmHg 41%
    01:00 +28°C° 0 mm 1 mps 638 mmHg 39%
    02:00 +28°C° 0 mm 1 mps 638 mmHg 38%
    03:00 +28°C° 0 mm 1 mps 638 mmHg 37%
    04:00 +28°C° 0 mm 1 mps 638 mmHg 37%
    05:00 +27°C° 0 mm 1 mps 638 mmHg 38%
    06:00 +27°C° 0 mm 1 mps 638 mmHg 39%
    07:00 +28°C° 0 mm 1 mps 639 mmHg 35%
    08:00 +30°C° 0 mm 2 mps 639 mmHg 31%
    09:00 +32°C° 0 mm 2 mps 640 mmHg 26%
    10:00 +34°C° 0 mm 3 mps 640 mmHg 26%
    11:00 +35°C° 0 mm 3 mps 640 mmHg 25%
    12:00 +36°C° 0 mm 4 mps 641 mmHg 24%
    13:00 +36°C° 0 mm 4 mps 640 mmHg 26%
    14:00 +35°C° 0 mm 4 mps 640 mmHg 29%
    15:00 +35°C° 0 mm 4 mps 639 mmHg 31%
    16:00 +34°C° 0 mm 4 mps 639 mmHg 35%
    17:00 +33°C° 0 mm 3 mps 639 mmHg 39%
    18:00 +31°C° 0 mm 3 mps 638 mmHg 43%
    19:00 +31°C° 0 mm 2 mps 639 mmHg 45%
    20:00 +30°C° 0 mm 2 mps 639 mmHg 47%
    21:00 +29°C° 0 mm 1 mps 639 mmHg 50%
    22:00 +29°C° 0 mm 1 mps 639 mmHg 47%
    23:00 +30°C° 0 mm 1 mps 639 mmHg 44%

    26 July, Friday

    Time Temperature Precipitation Wind Pressure Humidity
    00:00 +30°C° 0 mm 1 mps 639 mmHg 41%
    01:00 +30°C° 0 mm 1 mps 638 mmHg 42%
    02:00 +29°C° 0 mm 1 mps 638 mmHg 42%
    03:00 +29°C° 0 mm 1 mps 638 mmHg 42%
    04:00 +29°C° 0 mm 1 mps 638 mmHg 45%
    05:00 +28°C° 0 mm 1 mps 638 mmHg 48%
    06:00 +25°C° 0 mm 0 mps 638 mmHg 51%
    07:00 +29°C° 0 mm 1 mps 639 mmHg 48%
    08:00 +30°C° 0 mm 2 mps 640 mmHg 44%
    09:00 +31°C° 0 mm 2 mps 640 mmHg 40%
    10:00 +33°C° 0 mm 3 mps 640 mmHg 38%
    11:00 +34°C° 0 mm 4 mps 640 mmHg 35%
    12:00 +34°C° 0 mm 5 mps 640 mmHg 33%
    13:00 +34°C° 0 mm 4 mps 640 mmHg 35%
    14:00 +34°C° 0 mm 4 mps 639 mmHg 36%
    15:00 +33°C° 0 mm 3 mps 639 mmHg 38%
    16:00 +31°C° 0.1 mm 3 mps 638 mmHg 42%
    17:00 +31°C° 0.1 mm 3 mps 638 mmHg 46%
    18:00 +30°C° 0.1 mm 3 mps 638 mmHg 50%
    19:00 +29°C° 0 mm 2 mps 638 mmHg 52%
    20:00 +29°C° 0 mm 1 mps 638 mmHg 54%
    21:00 +26°C° 0 mm 0 mps 638 mmHg 56%
    22:00 +28°C° 0 mm 1 mps 638 mmHg 57%
    23:00 +28°C° 0 mm 1 mps 638 mmHg 59%
    Show more